Location: Unspecified
(54.1780°N, 0.0000°E)
Time: 08:08:41
(UTC+00:00)

Explorer 7 - Pass Details

Date: 21 June 2019
Orbit: 485 x 680 km, 50.3° (Epoch: 22 July)

Event Time Altitude Azimuth Distance (km) Brightness Sun altitude
Rises 11:55:04 0° 260° (W) 2,875 10.5 59.2°
Reaches altitude 10° 11:57:21 10° 256° (WSW) 2,000 9.9 59.3°
Maximum altitude 12:01:51 54° 180° (S) 788 10.8 59.3°
Drops below altitude 10° 12:06:35 10° 103° (ESE) 2,093 10.0 59.2°
Sets 12:09:01 0° 99° (E) 3,021 10.6 59.2°
